Location: El Álamo
(40.2307°N, 3.9945°W)
Time: 15:41:49
(UTC+00:00)

Okean-O - Pass Details

Date: 19 May 2025
Orbit: 628 x 631 km, 98.0° (Epoch: 22 June)

Event Time Altitude Azimuth Distance (km) Brightness Sun altitude
Exits shadow 20:03:46 - 120° (ESE) 2,168 4.6 -6.6°
Reaches altitude 10° 20:04:16 10° 116° (ESE) 2,010 4.5 -6.6°
Maximum altitude 20:07:34 21° 67° (ENE) 1,408 4.1 -7.2°
Drops below altitude 10° 20:10:53 10° 18° (NNE) 2,020 5.4 -7.7°
Sets 20:13:29 0° 3° (N) 2,932 6.5 -8.1°
